EW9274 Weather Reports


Display with metric or nautical units.
time (UTC)temp
F
wind
direction
speed
MPH
gust
MPH
rain 1hr
in
rain 24hr
in
rain mn
in
humidity
%
barometer
mb
20260906211013 77 214 6.0 10.0 0.00 0.00 0.00 58 1020.8
20260906210519 77 76 5.0 10.0 0.00 0.00 0.00 60 1020.7
20260906210039 77 126 5.0 9.0 0.00 0.00 0.00 59 1020.7
20260906205516 77 76 3.0 9.0 0.00 0.00 0.00 59 1020.8
20260906205007 76 132 3.0 11.0 0.00 0.00 0.00 60 1020.8
20260906204527 77 117 5.0 11.0 0.00 0.00 0.00 60 1020.8
20260906204017 77 105 4.0 11.0 0.00 0.00 0.00 60 1020.7
20260906203505 77 165 3.0 11.0 0.00 0.00 0.00 60 1020.8
20260906203028 77 146 3.0 10.0 0.00 0.00 0.00 58 1020.9
20260906202516 78 195 4.0 10.0 0.00 0.00 0.00 58 1020.8
20260906202008 78 61 3.0 10.0 0.00 0.00 0.00 58 1020.9
20260906201528 78 55 6.0 10.0 0.00 0.00 0.00 57 1020.8
20260906201020 78 132 4.0 10.0 0.00 0.00 0.00 58 1020.8
20260906200509 78 96 3.0 10.0 0.00 0.00 0.00 57 1020.7
20260906200031 79 165 3.0 8.0 0.00 0.00 0.00 56 1020.7
20260906195515 78 86 4.0 8.0 0.00 0.00 0.00 56 1020.7
20260906195011 78 150 2.0 8.0 0.00 0.00 0.00 57 1020.7
20260906194538 78 59 2.0 8.0 0.00 0.00 0.00 57 1020.7
20260906194015 78 98 3.0 10.0 0.00 0.00 0.00 58 1020.8
20260906193511 77 130 5.0 10.0 0.00 0.00 0.00 58 1020.9
20260906193004 78 111 3.0 7.0 0.00 0.00 0.00 57 1020.9
20260906192505 78 75 2.0 6.0 0.00 0.00 0.00 56 1020.9
20260906192002 79 153 2.0 10.0 0.00 0.00 0.00 57 1020.9
20260906191507 78 82 2.0 10.0 0.00 0.00 0.00 57 1020.9
20260906191006 78 66 5.0 10.0 0.00 0.00 0.00 57 1020.9
20260906190502 78 151 1.0 10.0 0.00 0.00 0.00 57 1020.9
20260906190007 78 42 6.0 10.0 0.00 0.00 0.00 57 1020.8
20260906185515 78 105 2.0 8.0 0.00 0.00 0.00 57 1020.9
20260906185017 77 72 3.0 10.0 0.00 0.00 0.00 58 1021.0
20260906184510 77 40 4.0 9.0 0.00 0.00 0.00 58 1021.1
20260906184018 77 90 2.0 12.0 0.00 0.00 0.00 58 1020.9
20260906183503 77 144 5.0 12.0 0.00 0.00 0.00 58 1020.8
20260906183037 78 72 6.0 9.0 0.00 0.00 0.00 57 1020.9
20260906182512 78 142 1.0 9.0 0.00 0.00 0.00 57 1021.0
20260906182002 78 140 4.0 9.0 0.00 0.00 0.00 58 1021.0
20260906181523 78 95 4.0 8.0 0.00 0.00 0.00 57 1020.9
20260906181011 79 119 3.0 6.0 0.00 0.00 0.00 58 1021.0
20260906180504 77 136 2.0 8.0 0.00 0.00 0.00 59 1020.9
20260906180009 78 121 1.0 9.0 0.00 0.00 0.00 58 1020.9
20260906175516 78 108 4.0 9.0 0.00 0.00 0.00 59 1020.9
20260906175020 78 90 4.0 10.0 0.00 0.00 0.00 58 1021.0
20260906174515 78 71 3.0 10.0 0.00 0.00 0.00 59 1021.0
20260906174012 78 59 4.0 9.0 0.00 0.00 0.00 58 1021.0
20260906173502 77 311 2.0 9.0 0.00 0.00 0.00 60 1021.1
20260906173014 77 141 4.0 12.0 0.00 0.00 0.00 59 1021.0
20260906172515 78 71 4.0 12.0 0.00 0.00 0.00 59 1021.1
20260906172003 78 200 3.0 12.0 0.00 0.00 0.00 60 1021.1
20260906171517 78 110 4.0 10.0 0.00 0.00 0.00 61 1021.1
20260906171016 77 42 4.0 10.0 0.00 0.00 0.00 62 1021.1
20260906170503 77 81 6.0 10.0 0.00 0.00 0.00 61 1021.4
20260906170018 77 121 1.0 10.0 0.00 0.00 0.00 63 1021.3
20260906165514 77 61 3.0 10.0 0.00 0.00 0.00 62 1021.3
20260906165001 77 77 4.0 9.0 0.00 0.00 0.00 62 1021.3
20260906164527 77 133 4.0 12.0 0.00 0.00 0.00 63 1021.4
20260906164003 77 53 3.0 12.0 0.00 0.00 0.00 63 1021.5
20260906163515 76 130 4.0 12.0 0.00 0.00 0.00 64 1021.5
20260906163026 77 69 2.0 10.0 0.00 0.00 0.00 64 1021.5
20260906162504 76 123 2.0 10.0 0.00 0.00 0.00 65 1021.4
20260906162015 76 89 6.0 10.0 0.00 0.00 0.00 66 1021.4
20260906161528 76 112 5.0 10.0 0.00 0.00 0.00 64 1021.2
20260906161018 77 208 3.0 10.0 0.00 0.00 0.00 64 1021.1
20260906160505 76 63 4.0 7.0 0.00 0.00 0.00 65 1021.1
20260906160041 76 47 3.0 13.0 0.00 0.00 0.00 65 1021.1
20260906155503 77 138 3.0 13.0 0.00 0.00 0.00 65 1021.0
20260906155022 75 62 5.0 10.0 0.00 0.00 0.00 67 1021.0
20260906154545 75 98 6.0 9.0 0.00 0.00 0.00 65 1021.1
20260906154018 76 335 2.0 8.0 0.00 0.00 0.00 66 1021.1
20260906153505 76 100 4.0 9.0 0.00 0.00 0.00 65 1021.0
20260906153036 75 82 4.0 11.0 0.00 0.00 0.00 65 1021.0
20260906152504 75 115 6.0 11.0 0.00 0.00 0.00 66 1021.1
20260906152008 75 55 2.0 9.0 0.00 0.00 0.00 68 1021.0
20260906151527 75 73 4.0 9.0 0.00 0.00 0.00 68 1021.0
20260906151003 75 117 4.0 9.0 0.00 0.00 0.00 68 1021.1
20260906150510 74 67 3.0 9.0 0.00 0.00 0.00 69 1021.1
20260906150029 75 84 4.0 8.0 0.00 0.00 0.00 69 1021.0
20260906145503 74 352 2.0 7.0 0.00 0.00 0.00 69 1021.0
20260906145009 74 161 2.0 9.0 0.00 0.00 0.00 70 1021.1
20260906144529 74 9 3.0 10.0 0.00 0.00 0.00 69 1021.0
20260906144008 75 60 4.0 10.0 0.00 0.00 0.00 69 1021.0
20260906143509 74 134 2.0 7.0 0.00 0.00 0.00 70 1021.0
20260906143044 74 117 4.0 7.0 0.00 0.00 0.00 70 1020.9
20260906142512 73 85 2.0 7.0 0.00 0.00 0.00 72 1020.9
20260906142013 73 165 3.0 7.0 0.00 0.00 0.00 74 1020.8
20260906141533 72 46 2.0 9.0 0.00 0.00 0.00 75 1020.9
20260906141021 72 140 2.0 9.0 0.00 0.00 0.00 76 1020.9
20260906140512 72 73 1.0 4.0 0.00 0.00 0.00 76 1021.0
20260906140042 71 74 1.0 3.0 0.00 0.00 0.00 78 1021.1
20260906135507 71 91 1.0 6.0 0.00 0.00 0.00 78 1021.1
20260906135018 72 105 2.0 6.0 0.00 0.00 0.00 77 1021.0
20260906134532 71 102 1.0 5.0 0.00 0.00 0.00 79 1020.9
20260906134008 71 84 3.0 6.0 0.00 0.00 0.00 78 1021.0
20260906133511 71 133 2.0 6.0 0.00 0.00 0.00 78 1020.9
20260906133007 70 137 1.0 5.0 0.00 0.00 0.00 80 1020.9
20260906132509 70 69 1.0 4.0 0.00 0.00 0.00 81 1020.9
20260906132014 70 70 1.0 6.0 0.00 0.00 0.00 81 1020.9
20260906131515 70 69 3.0 6.0 0.00 0.00 0.00 81 1020.9
20260906131014 70 86 1.0 4.0 0.00 0.00 0.00 83 1020.7
20260906130513 69 101 2.0 4.0 0.00 0.00 0.00 84 1020.7
20260906130028 69 5 0.0 2.0 0.00 0.00 0.00 85 1020.6
20260906125520 68 350 0.0 3.0 0.00 0.00 0.00 86 1020.6
20260906125020 68 11 1.0 3.0 0.00 0.00 0.00 86 1020.4
20260906124516 67 36 0.0 3.0 0.00 0.00 0.00 87 1020.4
20260906124013 67 55 1.0 3.0 0.00 0.00 0.00 87 1020.3
20260906123516 67 81 2.0 3.0 0.00 0.00 0.00 87 1020.2
20260906123016 67 116 1.0 3.0 0.00 0.00 0.00 87 1020.2
20260906122512 67 74 0.0 2.0 0.00 0.00 0.00 88 1020.2
20260906122018 66 105 0.0 2.0 0.00 0.00 0.00 89 1020.2
20260906121517 66 69 0.0 2.0 0.00 0.00 0.00 89 1020.1
20260906121011 66 85 0.0 2.0 0.00 0.00 0.00 90 1020.1
20260906120516 65 103 0.0 2.0 0.00 0.00 0.00 1020.1
20260906120020 65 68 0.0 2.0 0.00 0.00 0.00 91 1020.1
20260906115515 65 92 0.0 2.0 0.00 0.00 0.00 91 1019.9
20260906115015 65 61 1.0 2.0 0.00 0.00 0.00 91 1019.7
20260906114524 65 73 1.0 2.0 0.00 0.00 0.00 91 1019.7
20260906114018 65 90 0.0 2.0 0.00 0.00 0.00 91 1019.7
20260906113514 65 65 0.0 2.0 0.00 0.00 0.00 91 1019.6
20260906113036 65 51 1.0 3.0 0.00 0.00 0.00 90 1019.5
20260906112513 65 76 1.0 3.0 0.00 0.00 0.00 90 1019.4
20260906112020 65 48 1.0 2.0 0.00 0.00 0.00 90 1019.4
20260906111525 65 86 0.0 2.0 0.00 0.00 0.00 90 1019.5
20260906111015 65 134 0.0 4.0 0.00 0.00 0.00 90 1019.5
20260906110516 65 74 0.0 4.0 0.00 0.00 0.00 90 1019.4
20260906110027 65 91 2.0 4.0 0.00 0.00 0.00 90 1019.3
20260906105518 65 74 2.0 4.0 0.00 0.00 0.00 90 1019.3
20260906105007 65 88 1.0 5.0 0.00 0.00 0.00 90 1019.3
20260906104529 65 54 3.0 5.0 0.00 0.00 0.00 90 1019.2
20260906104014 65 13 3.0 5.0 0.00 0.00 0.00 90 1019.2
20260906103507 65 65 2.0 5.0 0.00 0.00 0.00 90 1019.2
20260906103004 65 73 3.0 5.0 0.00 0.00 0.00 89 1019.3
20260906102502 65 63 3.0 4.0 0.00 0.00 0.00 89 1019.3
20260906102010 65 90 2.0 5.0 0.00 0.00 0.00 89 1019.3
20260906101503 65 78 3.0 5.0 0.00 0.00 0.00 89 1019.2
20260906101006 65 36 3.0 5.0 0.00 0.00 0.00 89 1019.1
20260906100510 65 74 3.0 5.0 0.00 0.00 0.00 1019.2
20260906100004 66 63 2.0 4.0 0.00 0.00 0.00 88 1019.2
20260906095503 66 62 2.0 4.0 0.00 0.00 0.00 88 1019.1
20260906095011 66 68 1.0 3.0 0.00 0.00 0.00 89 1019.1
20260906094512 66 71 0.0 2.0 0.00 0.00 0.00 89 1019.2
20260906094004 65 40 0.0 2.0 0.00 0.00 0.00 88 1019.2
20260906093510 66 360 1.0 2.0 0.00 0.00 0.00 88 1019.1
20260906093003 66 67 0.0 2.0 0.00 0.00 0.00 88 1019.0
20260906092513 66 58 1.0 2.0 0.00 0.00 0.00 88 1018.9
20260906092014 66 69 0.0 2.0 0.00 0.00 0.00 88 1018.9
20260906091519 66 104 0.0 2.0 0.00 0.00 0.00 87 1018.9
20260906091007 66 39 0.0 2.0 0.00 0.00 0.00 87 1018.9
20260906090519 66 89 0.0 2.0 0.00 0.00 0.00 87 1018.9
20260906090005 66 103 1.0 2.0 0.00 0.00 0.00 87 1019.0
20260906085518 66 352 1.0 4.0 0.00 0.00 0.00 87 1019.1
20260906085016 66 57 1.0 4.0 0.00 0.00 0.00 87 1018.9
20260906084516 66 61 2.0 3.0 0.00 0.00 0.00 1018.9
20260906084010 66 15 0.0 3.0 0.00 0.00 0.00 86 1018.8
20260906083518 66 337 1.0 3.0 0.00 0.00 0.00 86 1018.9
20260906083018 67 23 1.0 3.0 0.00 0.00 0.00 86 1018.9
20260906082511 67 99 0.0 3.0 0.00 0.00 0.00 86 1018.8
20260906082015 67 91 1.0 3.0 0.00 0.00 0.00 86 1018.8
20260906081528 66 63 0.0 3.0 0.00 0.00 0.00 87 1018.8
20260906081011 66 80 0.0 3.0 0.00 0.00 0.00 87 1018.8
20260906080506 66 25 2.0 3.0 0.00 0.00 0.00 87 1018.9
20260906080013 66 47 0.0 3.0 0.00 0.00 0.00 87 1018.9
20260906075509 66 62 0.0 3.0 0.00 0.00 0.00 87 1018.9
20260906075004 66 65 2.0 3.0 0.00 0.00 0.00 87 1018.9
20260906074513 66 78 1.0 2.0 0.00 0.00 0.00 87 1018.8
20260906074010 66 80 0.0 2.0 0.00 0.00 0.00 87 1018.8
20260906073502 66 344 0.0 2.0 0.00 0.00 0.00 87 1018.8
20260906073015 66 333 0.0 2.0 0.00 0.00 0.00 87 1018.8
20260906072514 66 69 0.0 2.0 0.00 0.00 0.00 88 1018.8
20260906072004 66 14 1.0 2.0 0.00 0.00 0.00 87 1018.7
20260906071519 66 25 0.0 2.0 0.00 0.00 0.00 88 1018.7
20260906071012 66 17 0.0 2.0 0.00 0.00 0.00 87 1018.7
20260906070505 66 99 0.0 2.0 0.00 0.00 0.00 88 1018.6
20260906070018 66 90 0.0 2.0 0.00 0.00 0.00 88 1018.7
20260906065513 66 116 0.0 2.0 0.00 0.00 0.00 1018.7
20260906065006 66 115 0.0 2.0 0.00 0.00 0.00 88 1018.7
20260906064518 66 65 1.0 2.0 0.00 0.00 0.00 88 1018.8
20260906064015 66 73 0.0 2.0 0.00 0.00 0.00 88 1018.8
20260906063504 66 26 0.0 2.0 0.00 0.00 0.00 88 1018.8
20260906063023 66 94 0.0 2.0 0.00 0.00 0.00 88 1018.8
20260906062514 66 96 0.0 2.0 0.00 0.00 0.00 88 1018.8
20260906062005 66 214 0.0 2.0 0.00 0.00 0.00 88 1018.8
20260906061527 65 10 1.0 2.0 0.00 0.00 0.00 88 1018.8
20260906061015 65 53 1.0 2.0 0.00 0.00 0.00 88 1018.8
20260906060508 65 123 0.0 2.0 0.00 0.00 0.00 88 1018.8
20260906060028 65 73 0.0 2.0 0.00 0.00 0.00 88 1018.7
20260906055517 65 360 0.0 2.0 0.00 0.00 0.00 88 1018.8
20260906055007 65 341 0.0 2.0 0.00 0.00 0.00 88 1018.7
20260906054527 65 352 0.0 2.0 0.00 0.00 0.00 88 1018.7
20260906054018 65 49 0.0 3.0 0.00 0.00 0.00 88 1018.7
20260906053507 66 344 2.0 3.0 0.00 0.00 0.00 88 1018.8
20260906053037 66 305 0.0 4.0 0.00 0.00 0.00 88 1018.9
20260906052516 66 69 0.0 4.0 0.00 0.00 0.00 88 1018.8
20260906052008 66 84 2.0 3.0 0.00 0.00 0.00 87 1018.7
20260906051534 66 49 2.0 4.0 0.00 0.00 0.00 87 1018.7
20260906051016 66 81 2.0 5.0 0.00 0.00 0.00 87 1018.6
20260906050509 66 71 2.0 5.0 0.00 0.00 0.00 87 1018.5
20260906050052 66 48 2.0 4.0 0.00 0.00 0.00 87 1018.6
20260906045504 66 129 1.0 4.0 0.00 0.00 0.00 87 1018.6
20260906045008 66 87 2.0 4.0 0.00 0.00 0.00 87 1018.6
20260906044530 66 59 3.0 5.0 0.00 0.00 0.00 87 1018.6
20260906044007 66 33 2.0 5.0 0.00 0.00 0.00 87 1018.6
20260906043509 66 46 2.0 5.0 0.00 0.00 0.00 87 1018.6
20260906043008 67 61 1.0 4.0 0.00 0.00 0.00 86 1018.5
20260906042507 67 55 2.0 4.0 0.00 0.00 0.00 86 1018.3
20260906042011 67 69 2.0 4.0 0.00 0.00 0.00 86 1018.2
20260906041504 67 67 2.0 5.0 0.00 0.00 0.00 1018.2
20260906041008 67 80 3.0 7.0 0.00 0.00 0.00 85 1018.1
20260906040512 67 71 3.0 7.0 0.00 0.00 0.00 85 1018.0
20260906040006 67 51 4.0 6.0 0.00 0.00 0.00 85 1018.0
20260906035509 67 82 3.0 6.0 0.00 0.00 0.00 84 1018.2
20260906035014 67 56 4.0 6.0 0.00 0.00 0.00 84 1018.2
20260906034510 67 68 4.0 7.0 0.00 0.00 0.00 84 1018.2
20260906034019 67 57 3.0 7.0 0.00 0.00 0.00 83 1018.1
20260906033511 68 56 2.0 7.0 0.00 0.00 0.00 82 1018.1
20260906033008 68 94 3.0 5.0 0.00 0.00 0.00 82 1018.1
20260906032509 68 65 3.0 8.0 0.00 0.00 0.00 81 1018.2
20260906032015 68 65 3.0 8.0 0.00 0.00 0.00 80 1018.2
20260906031514 68 49 4.0 8.0 0.00 0.00 0.00 79 1018.1
20260906031009 68 26 3.0 8.0 0.00 0.00 0.00 79 1018.1
20260906030517 68 61 4.0 8.0 0.00 0.00 0.00 79 1018.1
20260906030011 68 104 3.0 10.0 0.00 0.00 0.00 79 1018.0
20260906025512 68 70 3.0 10.0 0.00 0.00 0.00 80 1018.1
20260906025017 69 46 6.0 10.0 0.00 0.00 0.00 80 1018.1
20260906024512 69 65 3.0 9.0 0.00 0.00 0.00 80 1018.1
20260906024010 69 71 5.0 9.0 0.00 0.00 0.00 81 1018.0
20260906023516 69 74 4.0 9.0 0.00 0.00 0.00 81 1018.0
20260906023018 69 32 5.0 9.0 0.00 0.00 0.00 81 1017.9
20260906022511 69 57 3.0 10.0 0.00 0.00 0.00 82 1017.8
20260906022015 69 44 6.0 10.0 0.00 0.00 0.00 83 1017.7
20260906021516 70 66 4.0 9.0 0.00 0.00 0.00 83 1017.7
20260906021014 70 53 4.0 10.0 0.00 0.00 0.00 83 1017.7
20260906020504 70 77 5.0 10.0 0.00 0.00 0.00 83 1017.7
20260906020018 70 73 4.0 9.0 0.00 0.00 0.00 83 1017.7
20260906015514 70 73 2.0 6.0 0.00 0.00 0.00 83 1017.7
20260906015003 70 62 4.0 7.0 0.00 0.00 0.00 82 1017.6
20260906014518 71 36 3.0 8.0 0.00 0.00 0.00 82 1017.7
20260906014013 71 41 5.0 9.0 0.00 0.00 0.00 81 1017.6
20260906013506 71 47 5.0 9.0 0.00 0.00 0.00 82 1017.7
20260906013021 71 67 5.0 9.0 0.00 0.00 0.00 82 1017.7
20260906012513 71 37 3.0 8.0 0.00 0.00 0.00 82 1017.7
20260906012010 71 44 3.0 8.0 0.00 0.00 0.00 83 1017.8
20260906011526 71 87 2.0 7.0 0.00 0.00 0.00 84 1017.7
20260906011013 70 54 4.0 8.0 0.00 0.00 0.00 85 1017.8
20260906010511 71 42 4.0 8.0 0.00 0.00 0.00 85 1017.8
20260906010023 70 84 3.0 5.0 0.00 0.00 0.00 86 1017.8
20260906005519 70 88 2.0 7.0 0.00 0.00 0.00 86 1017.9
20260906005009 70 67 2.0 7.0 0.00 0.00 0.00 86 1017.9
20260906004525 70 34 3.0 6.0 0.00 0.00 0.00 86 1017.7
20260906004017 70 88 3.0 8.0 0.00 0.00 0.00 86 1017.6
20260906003509 70 19 4.0 8.0 0.00 0.00 0.00 86 1017.5
20260906003030 70 86 4.0 10.0 0.00 0.00 0.00 85 1017.5
20260906002523 70 63 5.0 10.0 0.00 0.00 0.00 85 1017.7
20260906002008 70 63 3.0 10.0 0.00 0.00 0.00 85 1017.7
20260906001536 70 56 4.0 10.0 0.00 0.00 0.00 85 1017.7
20260906001017 71 33 5.0 9.0 0.00 0.00 0.00 85 1017.6
20260906000509 71 59 5.0 10.0 0.00 0.00 0.00 84 1017.6
20260906000031 71 71 6.0 10.0 0.00 0.00 0.00 84 1017.6
20260905235515 71 77 5.0 10.0 0.00 0.00 0.00 84 1017.5
20260905235009 71 79 5.0 12.0 0.00 0.00 0.00 83 1017.5
20260905234528 72 93 6.0 12.0 0.00 0.00 0.00 82 1017.6
20260905234018 72 47 3.0 12.0 0.00 0.00 0.00 82 1017.6
20260905233510 72 351 4.0 13.0 0.00 0.00 0.00 82 1017.6
20260905233032 72 63 5.0 13.0 0.00 0.00 0.00 82 1017.7
20260905232521 72 117 7.0 11.0 0.00 0.00 0.00 82 1017.6
20260905232012 72 92 4.0 9.0 0.00 0.00 0.00 82 1017.7
20260905231530 72 144 3.0 12.0 0.00 0.00 0.00 83 1017.5
20260905231006 72 24 5.0 12.0 0.00 0.00 0.00 82 1017.6
20260905230513 73 65 4.0 12.0 0.00 0.00 0.00 82 1017.6
20260905230033 73 57 4.0 11.0 0.00 0.00 0.00 82 1017.5
20260905225512 73 38 7.0 11.0 0.00 0.00 0.00 82 1017.4
20260905225014 73 147 7.0 10.0 0.00 0.00 0.00 82 1017.3
20260905224533 73 92 4.0 12.0 0.00 0.00 0.00 82 1017.3
20260905224005 73 73 5.0 12.0 0.00 0.00 0.00 82 1017.5
20260905223515 73 77 7.0 11.0 0.00 0.00 0.00 81 1017.5
20260905223036 73 34 3.0 10.0 0.00 0.00 0.00 82 1017.4
20260905222511 73 102 5.0 10.0 0.00 0.00 0.00 82 1017.4
20260905222019 74 65 6.0 10.0 0.00 0.00 0.00 81 1017.3
20260905221531 74 55 4.0 11.0 0.00 0.00 0.00 81 1017.2
20260905221008 74 51 7.0 12.0 0.00 0.00 0.00 80 1017.1
20260905220515 75 101 8.0 12.0 0.00 0.00 0.00 79 1017.1
20260905220035 75 68 5.0 12.0 0.00 0.00 0.00 78 1017.0
20260905215519 75 67 7.0 12.0 0.00 0.00 0.00 78 1016.9
20260905215017 76 51 2.0 8.0 0.00 0.00 0.00 77 1016.8
20260905214533 75 242 2.0 14.0 0.00 0.00 0.00 77 1016.7
20260905214016 75 182 3.0 14.0 0.00 0.00 0.00 78 1016.7
20260905213518 75 50 10.0 14.0 0.00 0.00 0.00 76 1016.6
20260905213033 76 20 6.0 14.0 0.00 0.00 0.00 76 1016.6
20260905212514 77 79 8.0 14.0 0.00 0.00 0.00 75 1016.6
20260905212018 77 92 4.0 13.0 0.00 0.00 0.00 75 1016.5
20260905211534 77 61 8.0 13.0 0.00 0.00 0.00 74 1016.6